Location: Poughquag
(41.6090°N, 73.6820°W)
Time: 11:14:48
(UTC-05:00)

ISS - Pass Details

Date: 21 January 2020
Orbit: 415 x 422 km, 51.6° (Epoch: 26 February)

Event Time Altitude Azimuth Distance (km) Brightness Sun altitude
Rises 17:40:20 0° 209° (SSW) 2,364 0.9 -8.4°
Reaches altitude 10° 17:42:36 10° 197° (SSW) 1,503 -0.4 -8.8°
Maximum altitude 17:45:34 29° 136° (SE) 809 -2.5 -9.4°
Enters shadow 17:47:54 14° 80° (E) 1,286 -2.0 -9.8°
